Location: Unnamed
(48.8836°N, 1.0859°W)
Time: 14:55:57
(UTC+02:00)

ISS - Pass Details

Date: 28 September 2021
Orbit: 417 x 423 km, 51.6° (Epoch: 16 October)

Event Time Altitude Azimuth Distance (km) Brightness Sun altitude
Rises 20:55:07 0° 285° (WNW) 2,365 2.2 -11.6°
Reaches altitude 10° 20:57:14 10° 289° (WNW) 1,501 0.5 -12.0°
Maximum altitude 21:00:34 57° 9° (N) 502 -3.4 -12.5°
Enters shadow 21:02:31 22° 82° (E) 976 -2.5 -12.8°
